Regional Weather Roundup
Issued by NWS Spokane, WA

Home | Current Version | Previous Version | Text Only | Print | Product List | Glossary On
Versions: 1 2 3 4 5 6 7 8 9 10 11 12 13 14 15 16 17 18 19 20 21 22 23 24 25 26 27 28 29 30 31 32 33 34 35 36 37 38 39 40 41 42 43 44 45 46 47 48 49 50
000
NZUS01 KOTX 312110
RWROTX
EASTERN WASHINGTON/NORTHERN IDAHO ROUNDUP
NATIONAL WEATHER SERVICE, SPOKANE WA
100 PM PST SAT JAN 31 2015

Note: "fair" indicated few or no clouds below 12,000 feet with no
significant weather and/or obstructions to visibility.

...NORTHEAST WASHINGTON AND NORTHERN IDAHO PANHANDLE...

CITY           SKY/WX    TMP DP  RH WIND       PRES   REMARKS
SPOKANE INTL   LGT SNOW  31  29  92 CALM      30.27F FOG
SPOKANE DOWNTO CLOUDY    34  28  79 CALM      30.30F
COEUR D ALENE  CLOUDY    34  27  75 W6        30.26F WCI  29
DEER PARK      CLOUDY    32  29  88 SE3       30.28F
SANDPOINT      CLOUDY    34  28  80 CALM      30.27S
BONNERS FERRY  CLOUDY    34  27  75 SW5       30.24F WCI  30

...SOUTHEAST WASHINGTON AND SOUTHERN IDAHO PANHANDLE...

CITY           SKY/WX    TMP DP  RH WIND       PRES   REMARKS
WALLA WALLA    CLOUDY    37  32  82 SW5       30.33F
PULLMAN/MOSCOW CLOUDY    33  28  81 CALM      30.28F
LEWISTON       CLOUDY    37  30  75 W6        30.32S
LOWELL           N/A     40  28  62 S8        30.30F

...COLUMBIA BASIN...

CITY           SKY/WX    TMP DP  RH WIND       PRES   REMARKS
EPHRATA        CLOUDY    36  31  82 CALM      30.31F
MOSES LAKE     CLOUDY    37  31  78 SW5       30.33F
TRI CITIES     CLOUDY    40  32  73 CALM      30.38F
HERMISTON      CLOUDY    40  33  76 NE7       30.35F
PENDLETON      CLOUDY    36  31  82 CALM      30.32S HAZE

...EAST SLOPES CASCADES...

CITY           SKY/WX    TMP DP  RH WIND       PRES   REMARKS
THE DALLES     CLOUDY    42  33  70 E10       30.35F
YAKIMA         CLOUDY    39  32  76 CALM      30.34F
ELLENSBURG     CLOUDY    37  30  75 VRB3      30.30F
WENATCHEE      PTSUNNY   39  30  70 CALM      30.31F
OMAK           PTSUNNY   41  30  65 NE7       30.29F

...SOUTHERN BRITISH COLUMBIA...

CITY           SKY/WX    TMP DP  RH WIND       PRES   REMARKS
PENTICTON      MOSUNNY   41  28  60 NW7       30.31F
CASTLEGAR      MOSUNNY   39  28  65 S5        30.25F

...WESTERN MONTANA...

CITY           SKY/WX    TMP DP  RH WIND       PRES   REMARKS
MISSOULA       PTSUNNY   39  26  59 N12       30.13F

...NEIGHBORING CITIES...

CITY           SKY/WX    TMP DP  RH WIND       PRES   REMARKS
SEATTLE        CLOUDY    41  39  93 NW5       30.21F FOG
CALGARY        MOSUNNY    9   1  72 NE3       30.34F



USA.gov is the U.S. government's official web portal to all federal, state and local government web resources and services.